K0WOI Weather Reports


Display with metric or nautical units.
time (UTC)temp
F
wind
direction
speed
MPH
gust
MPH
rain 1hr
in
rain 24hr
in
rain mn
in
humidity
%
barometer
mb
20260509004507 72 287 1.0 1.0 0.00 0.00 0.00 30 1003.4
20260509004004 72 274 1.0 1.0 0.00 0.00 0.00 30 1003.6
20260509003502 73 301 0.0 1.0 0.00 0.00 0.00 30 1003.4
20260509002959 73 260 7.0 9.0 0.00 0.00 0.00 27 1003.7
20260509002457 73 234 3.0 5.0 0.00 0.00 0.00 26 1003.1
20260509001953 74 252 3.0 5.0 0.00 0.00 0.00 25 1003.1
20260509001450 74 198 5.0 6.0 0.00 0.00 0.00 25 1003.3
20260509000947 74 259 3.0 5.0 0.00 0.00 0.00 25 1003.4
20260509000447 73 290 1.0 2.0 0.00 0.00 0.00 26 1003.1
20260508235941 73 237 1.0 1.0 0.00 0.00 0.00 25 1003.3
20260508235439 73 302 1.0 1.0 0.00 0.00 0.00 27 1003.3
20260508234935 73 303 0.0 1.0 0.00 0.00 0.00 26 1003.3
20260508234432 74 296 1.0 1.0 0.00 0.00 0.00 26 1003.4
20260508233929 74 288 2.0 2.0 0.00 0.00 0.00 24 1003.2
20260508233429 74 289 1.0 2.0 0.00 0.00 0.00 25 1003.3
20260508232925 75 298 2.0 2.0 0.00 0.00 0.00 26 1003.3
20260508232422 75 302 4.0 5.0 0.00 0.00 0.00 26 1003.5
20260508231920 76 307 3.0 3.0 0.00 0.00 0.00 24 1003.6
20260508231416 75 298 3.0 6.0 0.00 0.00 0.00 25 1003.6
20260508230914 76 355 4.0 5.0 0.00 0.00 0.00 24 1003.6
20260508230410 75 271 1.0 3.0 0.00 0.00 0.00 25 1003.4
20260508225907 76 248 3.0 3.0 0.00 0.00 0.00 23 1003.6
20260508225404 76 298 1.0 1.0 0.00 0.00 0.00 22 1003.5
20260508224901 76 312 1.0 2.0 0.00 0.00 0.00 25 1003.8
20260508224359 75 313 3.0 3.0 0.00 0.00 0.00 25 1004.1
20260508223856 76 333 2.0 2.0 0.00 0.00 0.00 22 1004.1
20260508223354 74 272 3.0 3.0 0.00 0.00 0.00 25 1004.0
20260508222851 75 307 1.0 2.0 0.00 0.00 0.00 24 1004.1
20260508222348 76 305 2.0 5.0 0.00 0.00 0.00 23 1004.1
20260508221844 75 298 1.0 1.0 0.00 0.00 0.00 24 1004.0
20260508221340 75 314 1.0 1.0 0.00 0.00 0.00 25 1004.1
20260508220836 76 272 2.0 2.0 0.00 0.00 0.00 26 1004.0
20260508220333 74 301 1.0 1.0 0.00 0.00 0.00 25 1004.2
20260508215830 74 321 1.0 1.0 0.00 0.00 0.00 25 1004.4
20260508215326 75 274 2.0 2.0 0.00 0.00 0.00 25 1004.3
20260508214823 77 296 1.0 2.0 0.00 0.00 0.00 26 1004.4
20260508214321 76 307 0.0 1.0 0.00 0.00 0.00 22 1004.3
20260508213817 75 322 1.0 1.0 0.00 0.00 0.00 23 1004.4
20260508213314 75 252 3.0 3.0 0.00 0.00 0.00 23 1004.6
20260508212810 76 285 1.0 1.0 0.00 0.00 0.00 22 1004.7
20260508212306 76 219 5.0 6.0 0.00 0.00 0.00 22 1004.7
20260508211802 75 286 2.0 2.0 0.00 0.00 0.00 24 1004.5
20260508211258 77 313 3.0 3.0 0.00 0.00 0.00 27 1004.7
20260508210756 76 237 3.0 3.0 0.00 0.00 0.00 23 1004.8
20260508210252 74 322 2.0 2.0 0.00 0.00 0.00 24 1004.9
20260508205750 75 220 3.0 5.0 0.00 0.00 0.00 23 1004.9
20260508205246 75 290 1.0 1.0 0.00 0.00 0.00 23 1004.9
20260508204742 75 284 3.0 5.0 0.00 0.00 0.00 22 1004.8
20260508204239 77 275 1.0 2.0 0.00 0.00 0.00 25 1005.1
20260508203735 76 309 2.0 2.0 0.00 0.00 0.00 23 1005.0
20260508203231 74 243 4.0 5.0 0.00 0.00 0.00 25 1005.4
20260508202727 74 317 3.0 5.0 0.00 0.00 0.00 25 1005.1
20260508202224 75 309 2.0 3.0 0.00 0.00 0.00 24 1005.3
20260508201722 76 289 3.0 5.0 0.00 0.00 0.00 23 1005.1
20260508201218 77 320 3.0 3.0 0.00 0.00 0.00 21 1005.4
20260508200715 77 338 3.0 5.0 0.00 0.00 0.00 22 1005.5
20260508200211 76 294 3.0 5.0 0.00 0.00 0.00 24 1005.5
20260508195708 77 250 5.0 6.0 0.00 0.00 0.00 24 1005.5
20260508195204 76 305 5.0 6.0 0.00 0.00 0.00 22 1005.7
20260508194700 76 320 2.0 2.0 0.00 0.00 0.00 22 1005.9
20260508194157 75 303 2.0 2.0 0.00 0.00 0.00 24 1005.7
20260508193655 77 306 5.0 7.0 0.00 0.00 0.00 23 1005.7
20260508193151 76 301 1.0 1.0 0.00 0.00 0.00 28 1005.9
20260508192648 76 329 0.0 1.0 0.00 0.00 0.00 23 1006.0
20260508192145 76 336 3.0 3.0 0.00 0.00 0.00 24 1006.2
20260508191642 75 306 2.0 2.0 0.00 0.00 0.00 24 1006.0
20260508191138 75 334 3.0 3.0 0.00 0.00 0.00 29 1006.4
20260508190636 75 237 5.0 7.0 0.00 0.00 0.00 24 1006.3
20260508190132 75 308 1.0 1.0 0.00 0.00 0.00 24 1006.3
20260508185629 74 275 1.0 2.0 0.00 0.00 0.00 26 1006.4
20260508185127 75 305 1.0 2.0 0.00 0.00 0.00 26 1006.4
20260508184624 74 302 3.0 5.0 0.00 0.00 0.00 27 1006.5
20260508184121 73 241 2.0 3.0 0.00 0.00 0.00 25 1006.6
20260508183617 73 293 1.0 2.0 0.00 0.00 0.00 24 1006.7
20260508183113 74 303 2.0 2.0 0.00 0.00 0.00 26 1006.8
20260508182610 73 333 3.0 5.0 0.00 0.00 0.00 25 1006.7
20260508182106 73 284 2.0 2.0 0.00 0.00 0.00 28 1006.8
20260508181601 73 233 3.0 5.0 0.00 0.00 0.00 27 1007.0
20260508181059 73 248 3.0 3.0 0.00 0.00 0.00 27 1006.9
20260508180556 73 274 0.0 1.0 0.00 0.00 0.00 26 1006.7
20260508180052 74 304 3.0 5.0 0.00 0.00 0.00 30 1007.0
20260508175549 73 266 0.0 1.0 0.00 0.00 0.00 24 1007.1
20260508175046 73 301 0.0 0.0 0.00 0.00 0.00 27 1007.0
20260508174544 71 265 1.0 2.0 0.00 0.00 0.00 27 1007.1
20260508174040 72 341 1.0 2.0 0.00 0.00 0.00 27 1007.2
20260508173537 72 299 5.0 7.0 0.00 0.00 0.00 26 1007.1
20260508173033 71 274 3.0 3.0 0.00 0.00 0.00 26 1007.3
20260508172531 72 309 3.0 3.0 0.00 0.00 0.00 24 1007.4
20260508172027 72 305 2.0 2.0 0.00 0.00 0.00 29 1007.4
20260508171524 72 303 1.0 1.0 0.00 0.00 0.00 27 1007.7
20260508171020 71 314 0.0 1.0 0.00 0.00 0.00 29 1007.7
20260508170518 70 330 1.0 1.0 0.00 0.00 0.00 32 1007.7
20260508170015 71 298 1.0 2.0 0.00 0.00 0.00 29 1007.8
20260508165512 70 302 0.0 1.0 0.00 0.00 0.00 31 1007.9
20260508165009 69 311 0.0 0.0 0.00 0.00 0.00 30 1008.1
20260508164505 69 266 3.0 3.0 0.00 0.00 0.00 28 1008.0
20260508164002 71 320 1.0 1.0 0.00 0.00 0.00 30 1007.8
20260508163500 69 304 1.0 1.0 0.00 0.00 0.00 30 1007.9
20260508162955 69 313 2.0 3.0 0.00 0.00 0.00 31 1008.2
20260508162453 69 254 2.0 2.0 0.00 0.00 0.00 29 1008.4
20260508161950 69 278 3.0 3.0 0.00 0.00 0.00 34 1008.0
20260508161447 69 325 1.0 1.0 0.00 0.00 0.00 34 1008.3
20260508160944 68 315 2.0 2.0 0.00 0.00 0.00 32 1008.4
20260508160443 68 255 2.0 2.0 0.00 0.00 0.00 33 1008.4
20260508155938 68 234 4.0 5.0 0.00 0.00 0.00 39 1008.2
20260508155436 68 249 3.0 3.0 0.00 0.00 0.00 40 1008.4
20260508154932 67 291 0.0 1.0 0.00 0.00 0.00 42 1008.3
20260508154430 68 226 3.0 3.0 0.00 0.00 0.00 41 1008.3
20260508153926 68 306 0.0 1.0 0.00 0.00 0.00 40 1008.5
20260508153424 67 238 2.0 2.0 0.00 0.00 0.00 41 1008.7
20260508152920 66 303 0.0 1.0 0.00 0.00 0.00 42 1008.6
20260508152417 66 303 0.0 0.0 0.00 0.00 0.00 48 1008.7
20260508151913 65 303 0.0 0.0 0.00 0.00 0.00 50 1008.7
20260508151410 64 258 2.0 2.0 0.00 0.00 0.00 48 1008.8
20260508150906 65 303 1.0 2.0 0.00 0.00 0.00 48 1008.8
20260508150403 64 282 2.0 2.0 0.00 0.00 0.00 51 1008.7
20260508145859 63 276 1.0 3.0 0.00 0.00 0.00 52 1008.7
20260508145355 62 301 0.0 0.0 0.00 0.00 0.00 52 1008.8
20260508144852 61 270 3.0 3.0 0.00 0.00 0.00 55 1009.0
20260508144350 60 289 1.0 2.0 0.00 0.00 0.00 55 1008.9
20260508143847 60 288 2.0 2.0 0.00 0.00 0.00 54 1009.1
20260508143345 60 308 1.0 1.0 0.00 0.00 0.00 55 1009.2
20260508142841 58 316 0.0 1.0 0.00 0.00 0.00 56 1009.2
20260508142338 57 303 0.0 1.0 0.00 0.00 0.00 58 1009.4
20260508141834 57 314 0.0 0.0 0.00 0.00 0.00 57 1009.1
20260508141331 57 314 0.0 1.0 0.00 0.00 0.00 57 1009.2
20260508140829 56 311 0.0 0.0 0.00 0.00 0.00 60 1009.3
20260508140326 55 310 0.0 1.0 0.00 0.00 0.00 58 1009.4
20260508135821 54 300 1.0 1.0 0.00 0.00 0.00 58 1009.4
20260508135318 54 308 0.0 0.0 0.00 0.00 0.00 59 1009.5
20260508134814 54 299 0.0 1.0 0.00 0.00 0.00 62 1009.4
20260508134311 53 319 1.0 1.0 0.00 0.00 0.00 66 1009.3
20260508133808 53 319 0.0 0.0 0.00 0.00 0.00 66 1009.3
20260508133306 53 319 1.0 1.0 0.00 0.00 0.00 68 1009.6
20260508132803 52 320 0.0 0.0 0.00 0.00 0.00 68 1009.2
20260508132301 52 320 0.0 0.0 0.00 0.00 0.00 64 1009.4
20260508131756 51 320 0.0 0.0 0.00 0.00 0.00 63 1009.2
20260508131252 50 321 0.0 0.0 0.00 0.00 0.00 67 1009.2
20260508130749 50 321 0.0 0.0 0.00 0.00 0.00 73 1009.2
20260508130246 50 321 0.0 0.0 0.00 0.00 0.00 79 1009.2
20260508125742 48 321 0.0 0.0 0.00 0.00 0.00 72 1009.2
20260508125238 48 321 0.0 0.0 0.00 0.00 0.00 79 1009.1
20260508124737 47 321 0.0 0.0 0.00 0.00 0.00 81 1008.9
20260508124233 47 320 0.0 0.0 0.00 0.00 0.00 77 1008.8
20260508123732 46 321 0.0 0.0 0.00 0.00 0.00 77 1008.8
20260508123229 46 321 0.0 0.0 0.00 0.00 0.00 84 1009.1
20260508122725 46 321 0.0 0.0 0.00 0.00 0.00 84 1008.6
20260508122222 45 320 0.0 1.0 0.00 0.00 0.00 87 1008.9
20260508121720 44 320 0.0 0.0 0.00 0.00 0.00 89 1009.0
20260508121219 44 320 0.0 0.0 0.00 0.00 0.00 91 1008.9
20260508120715 44 320 0.0 0.0 0.00 0.00 0.00 92 1008.8
20260508120213 44 320 0.0 0.0 0.00 0.00 0.00 92 1009.0
20260508115711 44 320 0.0 0.0 0.00 0.00 0.00 93 1009.0
20260508115207 44 320 0.0 0.0 0.00 0.00 0.00 94 1008.6
20260508114704 43 320 0.0 0.0 0.00 0.00 0.00 94 1008.7
20260508114201 43 320 0.0 0.0 0.00 0.00 0.00 94 1008.9
20260508113658 43 320 0.0 0.0 0.00 0.00 0.00 94 1009.1
20260508113156 43 320 0.0 0.0 0.00 0.00 0.00 94 1008.5
20260508112652 43 320 0.0 0.0 0.00 0.00 0.00 94 1008.8
20260508112149 42 320 0.0 0.0 0.00 0.00 0.00 94 1008.9
20260508111645 42 320 0.0 0.0 0.00 0.00 0.00 93 1008.9
20260508111143 42 320 0.0 0.0 0.00 0.00 0.00 92 1009.2
20260508110640 42 320 0.0 0.0 0.00 0.00 0.00 93 1008.8
20260508110137 41 320 0.0 0.0 0.00 0.00 0.00 94 1008.8
20260508105632 41 320 0.0 0.0 0.00 0.00 0.00 94 1009.1
20260508105129 41 320 0.0 0.0 0.00 0.00 0.00 94 1008.9
20260508104627 41 320 0.0 0.0 0.00 0.00 0.00 94 1008.9
20260508104123 41 320 0.0 0.0 0.00 0.00 0.00 94 1009.0
20260508103621 41 320 0.0 0.0 0.00 0.00 0.00 94 1008.9
20260508103117 41 320 0.0 0.0 0.00 0.00 0.00 94 1009.0
20260508102615 41 320 0.0 0.0 0.00 0.00 0.00 93 1008.8
20260508102113 41 320 0.0 0.0 0.00 0.00 0.00 93 1009.0
20260508101610 41 320 0.0 0.0 0.00 0.00 0.00 93 1009.3
20260508101107 41 320 0.0 0.0 0.00 0.00 0.00 93 1009.2
20260508100605 41 320 0.0 0.0 0.00 0.00 0.00 93 1009.4
20260508095558 40 320 0.0 0.0 0.00 0.00 0.00 92 1009.3
20260508095055 40 320 0.0 0.0 0.00 0.00 0.00 92 1009.5
20260508094552 40 320 0.0 0.0 0.00 0.00 0.00 92 1009.0
20260508094049 40 320 0.0 0.0 0.00 0.00 0.00 92 1009.2
20260508093547 40 320 0.0 0.0 0.00 0.00 0.00 92 1009.4
20260508093044 40 320 0.0 0.0 0.00 0.00 0.00 92 1009.2
20260508092541 40 320 0.0 0.0 0.00 0.00 0.00 91 1009.4
20260508092040 40 320 0.0 0.0 0.00 0.00 0.00 91 1009.3
20260508091537 41 320 0.0 0.0 0.00 0.00 0.00 91 1009.1
20260508091034 41 320 0.0 0.0 0.00 0.00 0.00 90 1009.3
20260508090532 41 320 0.0 0.0 0.00 0.00 0.00 90 1009.3
20260508090028 42 320 0.0 0.0 0.00 0.00 0.00 88 1008.9
20260508085525 41 320 0.0 0.0 0.00 0.00 0.00 84 1008.9
20260508085021 42 320 0.0 0.0 0.00 0.00 0.00 86 1009.1
20260508084519 42 320 0.0 0.0 0.00 0.00 0.00 89 1009.3
20260508084016 42 320 0.0 0.0 0.00 0.00 0.00 89 1009.5
20260508083513 41 320 0.0 0.0 0.00 0.00 0.00 88 1009.3
20260508083009 42 320 0.0 0.0 0.00 0.00 0.00 89 1009.4
20260508082505 42 320 0.0 0.0 0.00 0.00 0.00 89 1009.3
20260508082003 43 320 0.0 0.0 0.00 0.00 0.00 88 1009.1
20260508081500 42 320 0.0 0.0 0.00 0.00 0.00 86 1009.2
20260508080956 42 320 0.0 0.0 0.00 0.00 0.00 84 1009.0
20260508080454 43 320 0.0 0.0 0.00 0.00 0.00 85 1008.8
20260508075951 43 320 0.0 0.0 0.00 0.00 0.00 87 1009.0
20260508075448 42 320 0.0 0.0 0.00 0.00 0.00 89 1009.1
20260508074945 42 320 0.0 0.0 0.00 0.00 0.00 88 1009.1
20260508074443 43 320 0.0 0.0 0.00 0.00 0.00 87 1009.0
20260508073940 43 320 0.0 0.0 0.00 0.00 0.00 86 1009.2
20260508073437 43 320 0.0 0.0 0.00 0.00 0.00 87 1009.3
20260508072934 42 320 0.0 0.0 0.00 0.00 0.00 88 1009.3
20260508072430 42 320 0.0 0.0 0.00 0.00 0.00 87 1009.4
20260508071927 42 320 0.0 0.0 0.00 0.00 0.00 90 1009.3
20260508071425 42 320 0.0 0.0 0.00 0.00 0.00 91 1009.5
20260508070923 41 320 0.0 0.0 0.00 0.00 0.00 90 1009.6
20260508070421 41 320 0.0 0.0 0.00 0.00 0.00 90 1009.5
20260508065918 42 320 0.0 0.0 0.00 0.00 0.00 91 1009.4
20260508065416 42 320 0.0 0.0 0.00 0.00 0.00 90 1009.4
20260508064914 42 320 0.0 0.0 0.00 0.00 0.00 89 1009.5
20260508064411 42 320 0.0 0.0 0.00 0.00 0.00 89 1009.5
20260508063909 42 320 0.0 0.0 0.00 0.00 0.00 89 1009.5
20260508063406 42 320 0.0 0.0 0.00 0.00 0.00 89 1009.4
20260508062903 43 320 0.0 0.0 0.00 0.00 0.00 89 1009.4
20260508062401 43 320 0.0 0.0 0.00 0.00 0.00 89 1009.5
20260508061858 43 320 0.0 0.0 0.00 0.00 0.00 90 1009.3
20260508061355 43 320 0.0 0.0 0.00 0.00 0.00 92 1009.4
20260508060851 43 320 0.0 0.0 0.00 0.00 0.00 92 1009.3
20260508060349 43 320 0.0 0.0 0.00 0.00 0.00 92 1009.7
20260508055844 42 320 0.0 0.0 0.00 0.00 0.00 91 1009.6
20260508055342 42 320 0.0 0.0 0.00 0.00 0.00 91 1009.4
20260508054838 42 320 0.0 0.0 0.00 0.00 0.00 93 1009.7
20260508054336 43 320 0.0 0.0 0.00 0.00 0.00 92 1009.6
20260508053832 42 320 0.0 0.0 0.00 0.00 0.00 92 1009.4
20260508053330 42 320 0.0 0.0 0.00 0.00 0.00 93 1009.6
20260508052827 43 320 0.0 0.0 0.00 0.00 0.00 94 1009.4
20260508052324 43 320 0.0 0.0 0.00 0.00 0.00 94 1009.4
20260508051821 43 320 0.0 0.0 0.00 0.00 0.00 94 1009.7
20260508051316 44 320 0.0 0.0 0.00 0.00 0.00 94 1009.4
20260508050812 44 320 0.0 0.0 0.00 0.00 0.00 94 1009.7
20260508050310 43 320 0.0 0.0 0.00 0.00 0.00 93 1009.5
20260508045805 43 320 0.0 0.0 0.00 0.01 0.01 93 1010.0
20260508045306 44 320 0.0 0.0 0.00 0.01 0.01 93 1009.8
20260508044801 44 320 0.0 0.0 0.00 0.01 0.01 93 1009.9
20260508044257 44 320 0.0 0.0 0.00 0.01 0.01 93 1009.9
20260508043753 44 320 0.0 0.0 0.00 0.01 0.01 92 1009.7
20260508043251 44 320 0.0 0.0 0.00 0.01 0.01 91 1009.7
20260508042747 44 320 0.0 0.0 0.00 0.01 0.01 91 1009.7
20260508042245 45 320 0.0 0.0 0.00 0.01 0.01 91 1009.6
20260508041741 45 320 0.0 0.0 0.00 0.01 0.01 90 1009.8
20260508041238 45 320 0.0 0.0 0.00 0.01 0.01 89 1009.9
20260508040734 46 320 0.0 0.0 0.00 0.01 0.01 89 1009.8
20260508040232 46 320 0.0 0.0 0.00 0.01 0.01 88 1009.8
20260508035729 46 320 0.0 0.0 0.00 0.01 0.01 88 1009.8
20260508035226 46 320 0.0 0.0 0.00 0.01 0.01 87 1009.9
20260508034723 46 320 0.0 0.0 0.00 0.01 0.01 86 1009.7
20260508034220 46 320 1.0 1.0 0.00 0.01 0.01 87 1009.8
20260508033717 47 320 0.0 0.0 0.00 0.01 0.01 86 1009.7
20260508033216 48 320 0.0 1.0 0.00 0.01 0.01 86 1009.7
20260508032713 48 320 0.0 0.0 0.00 0.01 0.01 86 1009.7
20260508032209 48 320 0.0 0.0 0.00 0.01 0.01 86 1009.8
20260508031707 48 320 0.0 0.0 0.00 0.01 0.01 85 1009.7
20260508031203 48 320 0.0 0.0 0.00 0.01 0.01 86 1009.6
20260508030659 48 320 0.0 0.0 0.00 0.01 0.01 85 1009.5
20260508030157 48 320 0.0 0.0 0.00 0.01 0.01 85 1009.7
20260508025653 49 320 0.0 0.0 0.00 0.01 0.01 83 1009.6
20260508025150 49 320 0.0 0.0 0.00 0.01 0.01 83 1009.4
20260508024646 49 320 0.0 0.0 0.00 0.01 0.01 81 1009.5
20260508024143 50 320 0.0 0.0 0.00 0.01 0.01 82 1009.4
20260508023639 50 320 0.0 0.0 0.00 0.01 0.01 81 1009.2
20260508023137 51 320 0.0 0.0 0.00 0.01 0.01 80 1009.4
20260508022633 51 320 0.0 0.0 0.00 0.01 0.01 75 1009.3
20260508022130 51 320 0.0 0.0 0.00 0.01 0.01 76 1009.3
20260508021626 52 320 0.0 0.0 0.00 0.01 0.01 78 1009.2
20260508021121 52 320 0.0 0.0 0.00 0.01 0.01 78 1009.0
20260508020620 52 320 0.0 0.0 0.00 0.01 0.01 77 1009.0
20260508020117 53 320 0.0 0.0 0.00 0.01 0.01 75 1009.0
20260508015615 53 320 0.0 0.0 0.00 0.01 0.01 74 1008.7
20260508015111 54 320 0.0 0.0 0.00 0.01 0.01 70 1008.6
20260508014607 55 320 0.0 0.0 0.00 0.01 0.01 71 1008.5
20260508014104 56 320 0.0 0.0 0.00 0.01 0.01 67 1008.5
20260508013600 57 320 0.0 0.0 0.00 0.01 0.01 61 1008.5
20260508013057 58 320 0.0 0.0 0.00 0.01 0.01 58 1008.3
20260508012555 59 320 0.0 0.0 0.00 0.01 0.01 52 1008.3
20260508012052 60 320 0.0 0.0 0.00 0.01 0.01 47 1008.4
20260508011550 59 320 0.0 0.0 0.00 0.01 0.01 52 1008.2
20260508011047 60 320 0.0 0.0 0.00 0.01 0.01 59 1008.1
20260508010544 61 320 0.0 0.0 0.00 0.01 0.01 51 1008.2
20260508010041 61 321 0.0 0.0 0.00 0.01 0.01 47 1008.0
20260508005538 62 321 0.0 0.0 0.00 0.01 0.01 45 1008.1
20260508005034 62 321 0.0 0.0 0.00 0.01 0.01 45 1007.9